| time (UTC) | temp C | wind direction | speed KPH | gust KPH | rain 1hr cm | rain 24hr cm | rain mn cm | humidity % | barometer mb |
| 20260831054049 | 17 | 214 | 11.3 | 24.1 | 0.08 | 1.19 | 0.10 | 89 | 1007.0 |
| 20260831053549 | 17 | 238 | 11.3 | 24.1 | 0.05 | 1.17 | 0.05 | 89 | 1007.0 |
| 20260831043549 | 17 | 203 | 6.4 | 16.1 | 0.00 | 1.17 | 0.03 | 87 | 1007.1 |
| 20260831043050 | 17 | 213 | 9.7 | 20.9 | 0.00 | 1.17 | 0.03 | 88 | 1007.2 |
| 20260831040049 | 17 | 230 | 4.8 | 16.1 | 0.00 | 1.17 | 0.03 | 88 | 1007.0 |
| 20260831035549 | 17 | 203 | 8.0 | 19.3 | 0.00 | 1.17 | 0.03 | 88 | 1007.0 |
| 20260831035049 | 17 | 229 | 8.0 | 16.1 | 0.00 | 1.17 | 0.03 | 88 | 1007.0 |
| 20260831034550 | 17 | 212 | 8.0 | 19.3 | 0.00 | 1.17 | 0.03 | 88 | 1007.0 |
| 20260831033049 | 17 | 207 | 6.4 | 12.9 | 0.00 | 1.17 | 0.03 | 88 | 1007.1 |
| 20260831032548 | 17 | 215 | 4.8 | 14.5 | 0.00 | 1.19 | 0.03 | 88 | 1007.1 |
| 20260831032049 | 17 | 211 | 8.0 | 16.1 | 0.00 | 1.19 | 0.03 | 88 | 1007.3 |
| 20260831031548 | 17 | 222 | 6.4 | 16.1 | 0.00 | 1.19 | 0.03 | 88 | 1007.3 |
| 20260831031049 | 17 | 248 | 8.0 | 22.5 | 0.00 | 1.19 | 0.03 | 88 | 1007.5 |
| 20260831030048 | 17 | 229 | 9.7 | 16.1 | 0.00 | 1.19 | 0.03 | 88 | 1007.5 |
| 20260831025549 | 17 | 182 | 9.7 | 14.5 | 0.00 | 1.19 | 0.03 | 88 | 1007.6 |
| 20260831025050 | 17 | 238 | 6.4 | 14.5 | 0.00 | 1.19 | 0.03 | 89 | 1007.6 |
| 20260831024549 | 17 | 201 | 6.4 | 14.5 | 0.00 | 1.19 | 0.03 | 89 | 1007.6 |
| 20260831024049 | 17 | 197 | 8.0 | 12.9 | 0.00 | 1.19 | 0.03 | 89 | 1007.6 |
| 20260831023549 | 17 | 224 | 4.8 | 14.5 | 0.00 | 1.19 | 0.03 | 90 | 1007.7 |
| 20260831023049 | 17 | 198 | 4.8 | 19.3 | 0.00 | 1.19 | 0.03 | 90 | 1007.6 |
| 20260831022548 | 17 | 206 | 8.0 | 12.9 | 0.00 | 1.19 | 0.03 | 91 | 1007.6 |
| 20260831022049 | 17 | 207 | 4.8 | 12.9 | 0.00 | 1.19 | 0.03 | 91 | 1007.6 |
| 20260831021548 | 17 | 207 | 4.8 | 11.3 | 0.00 | 1.19 | 0.03 | 92 | 1007.6 |
| 20260831021051 | 17 | 208 | 6.4 | 11.3 | 0.00 | 1.19 | 0.03 | 92 | 1007.6 |
| 20260831015049 | 17 | 206 | 4.8 | 9.7 | 0.00 | 1.19 | 0.03 | 92 | 1007.6 |
| 20260831014548 | 17 | 207 | 4.8 | 9.7 | 0.00 | 1.19 | 0.03 | 92 | 1007.6 |
| 20260831014050 | 17 | 207 | 3.2 | 8.0 | 0.00 | 1.19 | 0.03 | 92 | 1007.6 |
| 20260831013548 | 17 | 207 | 3.2 | 4.8 | 0.00 | 1.19 | 0.03 | 92 | 1007.6 |
| 20260831013049 | 17 | 207 | 1.6 | 4.8 | 0.00 | 1.19 | 0.03 | 92 | 1007.5 |
| 20260831012548 | 17 | 207 | 1.6 | 4.8 | 0.00 | 1.19 | 0.03 | 92 | 1007.6 |
| 20260831012049 | 17 | 207 | 4.8 | 11.3 | 0.00 | 1.19 | 0.03 | 92 | 1007.9 |
| 20260831011549 | 17 | 206 | 4.8 | 9.7 | 0.00 | 1.19 | 0.03 | 92 | 1008.0 |
| 20260831011051 | 17 | 206 | 4.8 | 11.3 | 0.00 | 1.19 | 0.03 | 92 | 1008.0 |
| 20260831010049 | 17 | 205 | 3.2 | 8.0 | 0.00 | 1.19 | 0.03 | 92 | 1008.0 |
| 20260831005548 | 17 | 205 | 3.2 | 11.3 | 0.00 | 1.19 | 0.03 | 92 | 1007.9 |
| 20260831005049 | 17 | 205 | 3.2 | 9.7 | 0.00 | 1.19 | 0.03 | 91 | 1007.9 |
| 20260830235548 | 17 | 213 | 1.6 | 4.8 | 0.03 | 1.63 | 0.03 | 93 | 1008.1 |
| 20260830235048 | 17 | 213 | 3.2 | 9.7 | 0.03 | 1.68 | 0.03 | 93 | 1008.2 |
| 20260830233549 | 17 | 212 | 8.0 | 11.3 | 0.03 | 1.75 | 0.03 | 93 | 1008.5 |
| 20260830233048 | 17 | 204 | 4.8 | 11.3 | 0.03 | 1.75 | 0.03 | 93 | 1008.6 |
| 20260830231548 | 17 | 198 | 6.4 | 12.9 | 0.00 | 1.75 | 0.00 | 94 | 1008.6 |
| 20260830231048 | 17 | 236 | 4.8 | 14.5 | 0.00 | 1.75 | 0.00 | 94 | 1008.6 |
| 20260830224549 | 17 | 172 | 3.2 | 9.7 | 0.00 | 1.75 | 0.00 | 94 | 1008.6 |
| 20260830223049 | 17 | 217 | 0.0 | 0.0 | 0.00 | 1.75 | 0.00 | 94 | 1008.6 |
| 20260830221049 | 17 | 217 | 1.6 | 3.2 | 0.00 | 1.75 | 0.00 | 94 | 1008.9 |
| 20260830215049 | 17 | 217 | 0.0 | 1.6 | 0.10 | 1.78 | 1.78 | 93 | 1009.1 |
| 20260830214548 | 17 | 217 | 1.6 | 3.2 | 0.10 | 1.78 | 1.78 | 93 | 1009.1 |
| 20260830214049 | 17 | 217 | 1.6 | 4.8 | 0.10 | 1.78 | 1.78 | 93 | 1009.1 |
| 20260830213548 | 17 | 217 | 1.6 | 3.2 | 0.10 | 1.78 | 1.78 | 93 | 1009.1 |
| 20260830212049 | 17 | 217 | 1.6 | 3.2 | 0.36 | 1.83 | 1.78 | 93 | 1009.2 |
| 20260830211547 | 17 | 217 | 3.2 | 4.8 | 0.64 | 1.83 | 1.78 | 92 | 1009.4 |
| 20260830211049 | 17 | 217 | 1.6 | 11.3 | 0.66 | 1.83 | 1.78 | 92 | 1009.4 |
| 20260830210048 | 17 | 252 | 6.4 | 14.5 | 0.66 | 1.85 | 1.78 | 92 | 1009.5 |
| 20260830205049 | 17 | 271 | 3.2 | 4.8 | 0.56 | 1.75 | 1.68 | 91 | 1009.6 |
| 20260830203049 | 17 | 271 | 6.4 | 12.9 | 0.53 | 1.75 | 1.65 | 88 | 1009.7 |
| 20260830201049 | 20 | 183 | 1.6 | 4.8 | 0.00 | 1.19 | 1.12 | 80 | 1009.6 |
| 20260830193048 | 20 | 222 | 3.2 | 4.8 | 0.00 | 1.19 | 1.12 | 81 | 1009.6 |
| 20260830192548 | 20 | 222 | 1.6 | 4.8 | 0.00 | 1.27 | 1.12 | 80 | 1009.6 |
| 20260830192049 | 20 | 222 | 1.6 | 4.8 | 0.00 | 1.40 | 1.12 | 81 | 1009.7 |
| 20260830191548 | 20 | 222 | 1.6 | 4.8 | 0.00 | 1.47 | 1.12 | 81 | 1009.6 |
| 20260830191049 | 20 | 222 | 1.6 | 4.8 | 0.00 | 1.60 | 1.12 | 81 | 1009.7 |
| 20260830190048 | 20 | 222 | 1.6 | 4.8 | 0.00 | 1.83 | 1.12 | 81 | 1009.7 |
| 20260830185548 | 20 | 222 | 3.2 | 4.8 | 0.00 | 1.85 | 1.12 | 81 | 1009.7 |
| 20260830183049 | 20 | 222 | 0.0 | 0.0 | 0.00 | 2.08 | 1.12 | 81 | 1009.9 |
| 20260830182548 | 20 | 222 | 0.0 | 0.0 | 0.00 | 2.11 | 1.12 | 81 | 1010.0 |
| 20260830182049 | 20 | 222 | 0.0 | 0.0 | 0.00 | 2.11 | 1.12 | 81 | 1010.0 |
| 20260830181548 | 20 | 222 | 0.0 | 0.0 | 0.00 | 2.11 | 1.12 | 80 | 1010.0 |
| 20260830175548 | 20 | 222 | 0.0 | 0.0 | 0.00 | 2.13 | 1.12 | 79 | 1010.0 |
| 20260830175048 | 20 | 222 | 0.0 | 0.0 | 0.00 | 2.21 | 1.12 | 79 | 1010.1 |
| 20260830174548 | 20 | 222 | 0.0 | 0.0 | 0.00 | 2.21 | 1.12 | 79 | 1010.1 |
| 20260830174049 | 21 | 222 | 0.0 | 0.0 | 0.00 | 2.21 | 1.12 | 78 | 1010.1 |
| 20260830173549 | 21 | 222 | 0.0 | 0.0 | 0.00 | 2.21 | 1.12 | 78 | 1010.2 |
| 20260830165548 | 21 | 222 | 3.2 | 4.8 | 0.00 | 2.26 | 1.12 | 76 | 1010.6 |
| 20260830163048 | 21 | 263 | 9.7 | 14.5 | 0.00 | 2.29 | 1.12 | 75 | 1010.6 |
| 20260830162547 | 21 | 244 | 6.4 | 11.3 | 0.00 | 2.29 | 1.12 | 75 | 1010.6 |
| 20260830162048 | 21 | 215 | 4.8 | 14.5 | 0.00 | 2.29 | 1.12 | 75 | 1010.6 |
| 20260830161547 | 21 | 201 | 4.8 | 11.3 | 0.00 | 2.29 | 1.12 | 75 | 1010.6 |
| 20260830161048 | 21 | 258 | 3.2 | 14.5 | 0.00 | 2.29 | 1.12 | 75 | 1010.7 |
| 20260830153547 | 21 | 234 | 8.0 | 16.1 | 0.00 | 2.31 | 1.12 | 73 | 1010.9 |
| 20260830152048 | 21 | 254 | 8.0 | 16.1 | 0.00 | 2.31 | 1.12 | 72 | 1011.1 |
| 20260830151547 | 21 | 263 | 8.0 | 19.3 | 0.00 | 2.31 | 1.12 | 72 | 1011.1 |
| 20260830150048 | 21 | 249 | 9.7 | 20.9 | 0.00 | 2.31 | 1.12 | 74 | 1011.1 |
| 20260830145547 | 21 | 249 | 9.7 | 22.5 | 0.00 | 2.31 | 1.12 | 75 | 1011.1 |
| 20260830144547 | 21 | 257 | 8.0 | 16.1 | 0.00 | 2.31 | 1.12 | 75 | 1011.2 |
| 20260830144049 | 21 | 243 | 9.7 | 19.3 | 0.00 | 2.31 | 1.12 | 75 | 1011.2 |
| 20260830143548 | 21 | 263 | 9.7 | 19.3 | 0.00 | 2.31 | 1.12 | 75 | 1011.1 |
| 20260830143048 | 21 | 242 | 9.7 | 16.1 | 0.00 | 2.31 | 1.12 | 75 | 1011.2 |
| 20260830142547 | 21 | 238 | 8.0 | 20.9 | 0.00 | 2.31 | 1.12 | 75 | 1011.2 |
| 20260830142047 | 21 | 225 | 9.7 | 16.1 | 0.00 | 2.31 | 1.12 | 76 | 1011.1 |
| 20260830141548 | 21 | 243 | 9.7 | 19.3 | 0.00 | 2.31 | 1.12 | 77 | 1011.1 |
| 20260830141048 | 21 | 254 | 6.4 | 19.3 | 0.00 | 2.31 | 1.12 | 79 | 1011.1 |
| 20260830134547 | 20 | 256 | 6.4 | 14.5 | 0.00 | 2.31 | 1.12 | 82 | 1011.1 |
| 20260830133047 | 20 | 255 | 8.0 | 19.3 | 0.00 | 2.31 | 1.12 | 82 | 1011.2 |
| 20260830132548 | 20 | 232 | 8.0 | 14.5 | 0.00 | 2.31 | 1.12 | 82 | 1011.2 |
| 20260830132048 | 20 | 242 | 9.7 | 19.3 | 0.00 | 2.31 | 1.12 | 82 | 1011.2 |
| 20260830125048 | 20 | 245 | 8.0 | 16.1 | 0.00 | 2.31 | 1.12 | 82 | 1011.1 |
| 20260830124547 | 20 | 254 | 9.7 | 16.1 | 0.00 | 2.31 | 1.12 | 82 | 1011.1 |
| 20260830124047 | 20 | 277 | 9.7 | 19.3 | 0.00 | 2.31 | 1.12 | 82 | 1011.0 |
| 20260830123547 | 20 | 315 | 8.0 | 20.9 | 0.00 | 2.31 | 1.12 | 82 | 1011.0 |
| 20260830123048 | 20 | 284 | 8.0 | 14.5 | 0.00 | 2.31 | 1.12 | 82 | 1011.0 |
| 20260830121547 | 20 | 277 | 9.7 | 19.3 | 0.00 | 2.31 | 1.12 | 83 | 1010.8 |
| 20260830121048 | 20 | 260 | 9.7 | 22.5 | 0.00 | 2.31 | 1.12 | 82 | 1010.8 |
| 20260830120047 | 20 | 276 | 12.9 | 20.9 | 0.00 | 2.31 | 1.12 | 83 | 1010.7 |
| 20260830115547 | 20 | 252 | 8.0 | 19.3 | 0.00 | 2.31 | 1.12 | 84 | 1010.6 |
| 20260830114047 | 20 | 280 | 11.3 | 19.3 | 0.00 | 2.31 | 1.12 | 84 | 1010.6 |
| 20260830113547 | 20 | 241 | 11.3 | 20.9 | 0.00 | 2.31 | 1.12 | 84 | 1010.6 |
| 20260830113048 | 20 | 286 | 14.5 | 22.5 | 0.00 | 2.31 | 1.12 | 84 | 1010.6 |
| 20260830112547 | 20 | 284 | 11.3 | 25.7 | 0.00 | 2.31 | 1.12 | 85 | 1010.6 |
| 20260830112048 | 20 | 252 | 8.0 | 19.3 | 0.00 | 2.31 | 1.12 | 87 | 1010.5 |
| 20260830105547 | 19 | 265 | 8.0 | 14.5 | 0.05 | 2.31 | 1.12 | 91 | 1010.2 |
| 20260830105047 | 19 | 268 | 3.2 | 20.9 | 0.13 | 2.31 | 1.12 | 92 | 1010.1 |
| 20260830104547 | 19 | 281 | 8.0 | 25.7 | 0.13 | 2.31 | 1.12 | 92 | 1010.1 |
| 20260830104047 | 19 | 273 | 8.0 | 19.3 | 0.13 | 2.31 | 1.12 | 93 | 1010.1 |
| 20260830103547 | 19 | 244 | 8.0 | 20.9 | 0.13 | 2.31 | 1.12 | 94 | 1010.1 |
| 20260830103048 | 19 | 289 | 8.0 | 12.9 | 0.13 | 2.31 | 1.12 | 94 | 1010.1 |
| 20260830102547 | 18 | 246 | 8.0 | 19.3 | 0.13 | 2.31 | 1.12 | 94 | 1010.1 |
| 20260830102047 | 18 | 255 | 6.4 | 16.1 | 0.13 | 2.31 | 1.12 | 94 | 1010.0 |
| 20260830101547 | 18 | 238 | 8.0 | 20.9 | 0.13 | 2.31 | 1.12 | 94 | 1009.9 |
| 20260830101047 | 18 | 253 | 9.7 | 24.1 | 0.15 | 2.31 | 1.12 | 94 | 1009.8 |
| 20260830100047 | 18 | 265 | 9.7 | 24.1 | 0.15 | 2.31 | 1.09 | 93 | 1009.7 |
| 20260830095547 | 18 | 240 | 11.3 | 25.7 | 0.10 | 2.26 | 1.07 | 93 | 1009.7 |
| 20260830095048 | 18 | 296 | 4.8 | 16.1 | 0.05 | 2.21 | 0.99 | 94 | 1009.6 |
| 20260830094547 | 18 | 298 | 9.7 | 20.9 | 0.05 | 2.21 | 0.99 | 94 | 1009.5 |
| 20260830085547 | 18 | 240 | 11.3 | 24.1 | 0.15 | 2.16 | 0.97 | 94 | 1008.7 |
| 20260830084547 | 18 | 249 | 12.9 | 29.0 | 0.15 | 2.16 | 0.97 | 94 | 1008.7 |
| 20260830082547 | 18 | 238 | 6.4 | 12.9 | 0.15 | 2.13 | 0.94 | 94 | 1008.6 |
| 20260830082048 | 18 | 233 | 11.3 | 20.9 | 0.13 | 2.11 | 0.91 | 94 | 1008.6 |
| 20260830081548 | 18 | 233 | 12.9 | 24.1 | 0.13 | 2.11 | 0.91 | 94 | 1008.5 |
| 20260830074547 | 18 | 252 | 8.0 | 20.9 | 0.05 | 2.01 | 0.79 | 94 | 1008.1 |
| 20260830074047 | 18 | 236 | 11.3 | 27.4 | 0.05 | 2.01 | 0.79 | 94 | 1008.0 |
| 20260830073048 | 18 | 247 | 8.0 | 20.9 | 0.05 | 2.01 | 0.79 | 94 | 1007.9 |
| 20260830072547 | 18 | 206 | 6.4 | 16.1 | 0.05 | 2.01 | 0.79 | 94 | 1007.8 |
| 20260830072048 | 18 | 243 | 4.8 | 11.3 | 0.05 | 2.01 | 0.79 | 94 | 1007.7 |
| 20260830064546 | 18 | 219 | 8.0 | 16.1 | 0.05 | 1.96 | 0.76 | 95 | 1007.2 |
| 20260830064047 | 18 | 210 | 6.4 | 12.9 | 0.08 | 1.96 | 0.76 | 95 | 1007.1 |
| 20260830063547 | 18 | 220 | 4.8 | 11.3 | 0.08 | 1.96 | 0.76 | 95 | 1007.1 |
| 20260830063047 | 18 | 232 | 3.2 | 12.9 | 0.08 | 1.96 | 0.76 | 95 | 1007.1 |
| 20260830062546 | 18 | 250 | 4.8 | 12.9 | 0.08 | 1.96 | 0.76 | 94 | 1007.0 |
| 20260830062047 | 18 | 261 | 4.8 | 11.3 | 0.08 | 1.96 | 0.76 | 94 | 1007.0 |